Fredericksburg, Texas, United States (78624)
Lat: 30.27N, Lon: 98.87W
Wx Zone: TXZ188
Local Info
Past Weather Observations for Today

NOTE: This archive is for the closest National Weather Service station to Fredericksburg. Information may differ from the station used for current weather conditions.

Click here for Long-term Archive

Time Weather Temperature Dewpoint Humidity Pressure Winds Precip Visibility
18:55
Mostly Cloudy
73°F / 23°C 70°F / 21°C 89% 30.06 in
(1018 mb)
E 9.2 mph
(E 15 kph)
- 10SM
18:35
Mostly Cloudy
75°F / 24°C 70°F / 21°C 83% 30.06 in
(1018 mb)
ESE 3.5 mph
(ESE 6 kph)
- 10SM
18:15
Mostly Cloudy
75°F / 24°C 70°F / 21°C 83% 30.04 in
(1017 mb)
E 3.5 mph
(E 6 kph)
- 10SM
17:55
Mostly Cloudy
75°F / 24°C 70°F / 21°C 83% 30.04 in
(1017 mb)
Calm - 10SM
17:35
Mostly Cloudy
75°F / 24°C 70°F / 21°C 83% 30.04 in
(1017 mb)
SE 4.6 mph
(SE 7 kph)
- 10SM
17:15
Overcast
77°F / 25°C 70°F / 21°C 79% 30.04 in
(1017 mb)
SE 4.6 mph
(SE 7 kph)
- 10SM
16:55
Overcast
77°F / 25°C 70°F / 21°C 79% 30.06 in
(1018 mb)
S 4.6 mph
(S 7 kph)
- 10SM
16:35
Overcast
77°F / 25°C 68°F / 20°C 74% 30.06 in
(1018 mb)
SSE 5.8 mph
(SSE 9 kph)
- 10SM
16:15
Overcast
75°F / 24°C 68°F / 20°C 78% 30.06 in
(1018 mb)
SE 3.5 mph
(SE 6 kph)
- 10SM
15:55
Overcast
75°F / 24°C 68°F / 20°C 78% 30.06 in
(1018 mb)
SSE 3.5 mph
(SSE 6 kph)
- 10SM
15:35
Overcast
75°F / 24°C 68°F / 20°C 78% 30.09 in
(1019 mb)
Calm - 10SM
15:15
Overcast
75°F / 24°C 68°F / 20°C 78% 30.09 in
(1019 mb)
SE 4.6 mph
(SE 7 kph)
- 10SM
14:55
Overcast
73°F / 23°C 68°F / 20°C 83% 30.09 in
(1019 mb)
SE 3.5 mph
(SE 6 kph)
- 10SM
14:35
Overcast
72°F / 22°C 68°F / 20°C 88% 30.09 in
(1019 mb)
SSE 3.5 mph
(SSE 6 kph)
- 7SM
14:15
Overcast
Fog And Mist
70°F / 21°C 68°F / 20°C 94% 30.12 in
(1020 mb)
SE 4.6 mph
(SE 7 kph)
- 5SM
13:55
Overcast
Fog And Mist
70°F / 21°C 68°F / 20°C 94% 30.12 in
(1020 mb)
SSE 3.5 mph
(SSE 6 kph)
- 4SM
13:35
Overcast
Fog And Mist
70°F / 21°C 68°F / 20°C 94% 30.12 in
(1020 mb)
SSE 5.8 mph
(SSE 9 kph)
- 4SM
13:15
Overcast
Light Rain
70°F / 21°C 68°F / 20°C 94% 30.12 in
(1020 mb)
SSE 3.5 mph
(SSE 6 kph)
- 3SM
12:55
Overcast
Fog And Mist
70°F / 21°C 68°F / 20°C 94% 30.12 in
(1020 mb)
SSE 6.9 mph
(SSE 11 kph)
- 5SM
12:35
Overcast
Fog And Mist
70°F / 21°C 68°F / 20°C 94% 30.12 in
(1020 mb)
SSE 4.6 mph
(SSE 7 kph)
- 5SM
12:15
Overcast
70°F / 21°C 68°F / 20°C 94% 30.12 in
(1020 mb)
SSE 4.6 mph
(SSE 7 kph)
- 7SM
11:55
Overcast
70°F / 21°C 68°F / 20°C 94% 30.12 in
(1020 mb)
SE 5.8 mph
(SE 9 kph)
- 7SM
11:35
Overcast
68°F / 20°C 68°F / 20°C 100% 30.12 in
(1020 mb)
SE 3.5 mph
(SE 6 kph)
- 7SM
11:15
Overcast
68°F / 20°C 66°F / 19°C 94% 30.12 in
(1020 mb)
ESE 4.6 mph
(ESE 7 kph)
- 7SM
10:55
Overcast
Fog And Mist
68°F / 20°C 66°F / 19°C 94% 30.12 in
(1020 mb)
Calm - 5SM
10:35
Overcast
Fog And Mist
66°F / 19°C 66°F / 19°C 100% 30.12 in
(1020 mb)
E 5.8 mph
(E 9 kph)
- 3SM
10:15
Overcast
Fog And Mist
66°F / 19°C 64°F / 18°C 94% 30.12 in
(1020 mb)
SE 3.5 mph
(SE 6 kph)
- 3SM
09:55
Overcast
Fog And Mist
64°F / 18°C 64°F / 18°C 100% 30.12 in
(1020 mb)
E 5.8 mph
(E 9 kph)
- 2 1/2SM
09:35
Overcast
Fog And Mist
64°F / 18°C 64°F / 18°C 100% 30.12 in
(1020 mb)
E 4.6 mph
(E 7 kph)
- 1 3/4SM
09:15
Overcast
Fog And Mist
64°F / 18°C 63°F / 17°C 94% 30.12 in
(1020 mb)
E 4.6 mph
(E 7 kph)
- 2SM
08:55
Overcast
Fog And Mist
64°F / 18°C 63°F / 17°C 94% 30.12 in
(1020 mb)
E 5.8 mph
(E 9 kph)
- 1 1/2SM
08:35
Overcast
Fog And Mist
63°F / 17°C 63°F / 17°C 100% 30.12 in
(1020 mb)
E 3.5 mph
(E 6 kph)
- 1 1/4SM
08:15
Overcast
Light Rain
63°F / 17°C 61°F / 16°C 94% 30.12 in
(1020 mb)
E 4.6 mph
(E 7 kph)
- 1SM
07:55
Overcast
Fog And Mist
61°F / 16°C 61°F / 16°C 100% 30.12 in
(1020 mb)
ESE 3.5 mph
(ESE 6 kph)
- 1SM
07:35
Overcast
Fog And Mist
61°F / 16°C 61°F / 16°C 100% 30.12 in
(1020 mb)
E 5.8 mph
(E 9 kph)
- 1SM
07:15
Overcast
Fog And Mist
61°F / 16°C 61°F / 16°C 100% 30.12 in
(1020 mb)
E 4.6 mph
(E 7 kph)
- 1 1/2SM
06:55
Overcast
Fog And Mist
61°F / 16°C 61°F / 16°C 100% 30.12 in
(1020 mb)
E 3.5 mph
(E 6 kph)
- 1 1/4SM
06:35
Overcast
Fog And Mist
61°F / 16°C 61°F / 16°C 100% 30.12 in
(1020 mb)
E 4.6 mph
(E 7 kph)
- 1 1/4SM
06:15
Overcast
Drizzle
61°F / 16°C 59°F / 15°C 94% 30.12 in
(1020 mb)
E 3.5 mph
(E 6 kph)
- 3/4SM
05:55
Overcast
Fog And Mist
61°F / 16°C 59°F / 15°C 94% 30.12 in
(1020 mb)
E 4.6 mph
(E 7 kph)
- 3/4SM
05:35
Overcast
Fog And Mist
61°F / 16°C 59°F / 15°C 94% 30.09 in
(1019 mb)
Calm - 3/4SM
05:15
Overcast
Fog And Mist
61°F / 16°C 59°F / 15°C 94% 30.09 in
(1019 mb)
E 4.6 mph
(E 7 kph)
- 3/4SM
04:55
Overcast
Fog And Mist
61°F / 16°C 59°F / 15°C 94% 30.09 in
(1019 mb)
ENE 5.8 mph
(ENE 9 kph)
- 3/4SM
04:35
Overcast
Fog And Mist
61°F / 16°C 59°F / 15°C 94% 30.09 in
(1019 mb)
E 4.6 mph
(E 7 kph)
- 3/4SM
04:15
Overcast
Fog And Mist
61°F / 16°C 59°F / 15°C 94% 30.09 in
(1019 mb)
E 5.8 mph
(E 9 kph)
- 1 1/4SM
03:55
Overcast
Rain
61°F / 16°C 59°F / 15°C 94% 30.09 in
(1019 mb)
ENE 4.6 mph
(ENE 7 kph)
- 2SM
03:35
Overcast
Fog And Mist
59°F / 15°C 59°F / 15°C 100% 30.09 in
(1019 mb)
E 4.6 mph
(E 7 kph)
- 2SM
03:15
Overcast
Fog And Mist
59°F / 15°C 59°F / 15°C 100% 30.09 in
(1019 mb)
E 4.6 mph
(E 7 kph)
- 2 1/2SM
02:55
Overcast
Fog And Mist
59°F / 15°C 59°F / 15°C 100% 30.09 in
(1019 mb)
E 6.9 mph
(E 11 kph)
- 2 1/2SM
02:35
Overcast
Fog And Mist
59°F / 15°C 59°F / 15°C 100% 30.09 in
(1019 mb)
E 4.6 mph
(E 7 kph)
- 2SM
02:15
Overcast
Fog And Mist
59°F / 15°C 59°F / 15°C 100% 30.12 in
(1020 mb)
E 3.5 mph
(E 6 kph)
- 2SM
01:55
Overcast
Fog And Mist
59°F / 15°C 59°F / 15°C 100% 30.12 in
(1020 mb)
E 3.5 mph
(E 6 kph)
- 2 1/2SM
01:35
Overcast
Fog And Mist
59°F / 15°C 59°F / 15°C 100% 30.12 in
(1020 mb)
E 3.5 mph
(E 6 kph)
- 2 1/2SM
01:15
Overcast
Fog And Mist
59°F / 15°C 59°F / 15°C 100% 30.12 in
(1020 mb)
E 3.5 mph
(E 6 kph)
- 2SM
00:55
Overcast
Fog And Mist
59°F / 15°C 59°F / 15°C 100% 30.12 in
(1020 mb)
Calm - 3SM
00:35
Overcast
Fog And Mist
59°F / 15°C 59°F / 15°C 100% 30.12 in
(1020 mb)
Calm - 2 1/2SM
00:15
Overcast
Fog And Mist
59°F / 15°C 59°F / 15°C 100% 30.12 in
(1020 mb)
E 3.5 mph
(E 6 kph)
- 2SM
Time Weather Temperature Dewpoint Humidity Pressure Winds Precip Visibility


Weather for websites

WeatherForYou.com, LLC is not responsible for any damages or problems caused by this service. Current weather conditions are obtained from the closest station including government and personal stations which may have varying degrees of accuracy. Weather forecasts are derived from the NOAA NDFD. Like all things, this site belongs to Jesus Christ... He just trusts us to maintain it. If you have any questions or comments email webmaster@weatherforyou.com

Copyright © 2015, WeatherForYou.com LLC. All rights reserved.